When you browse on this site, cookies collect data to enhance your experience and personalize the content and advertising you see.
Visit our Privacy Policy to learn more. By continuing to use the site, you agree to this use of cookies and data.
  • In Romania
  • List of Countries
  • For 7 days
  • Water Temperature
  • Weather Map
  • Weather Widgets
  • user-avatar
    Login

    Hourly Weather Aylesbury

    Today, 7 June, Sunday

    Time Temperature Precipitation Wind Pressure Humidity
    00:00 +6°C° 0 mm 2 mps 744 mmHg 93%
    01:00 +6°C° 0 mm 2 mps 744 mmHg 94%
    02:00 +6°C° 0 mm 2 mps 745 mmHg 95%
    03:00 +6°C° 0 mm 2 mps 745 mmHg 96%
    04:00 +7°C° 0 mm 3 mps 745 mmHg 95%
    05:00 +8°C° 0 mm 3 mps 746 mmHg 94%
    06:00 +9°C° 0 mm 3 mps 746 mmHg 93%
    07:00 +10°C° 0 mm 3 mps 747 mmHg 88%
    08:00 +12°C° 0 mm 3 mps 747 mmHg 82%
    09:00 +13°C° 0 mm 4 mps 748 mmHg 77%
    10:00 +13°C° 0.2 mm 4 mps 748 mmHg 78%
    11:00 +14°C° 0.2 mm 4 mps 748 mmHg 79%
    12:00 +14°C° 0.2 mm 4 mps 749 mmHg 79%
    13:00 +14°C° 0.4 mm 4 mps 749 mmHg 80%
    14:00 +14°C° 0.4 mm 4 mps 749 mmHg 81%
    15:00 +14°C° 0.4 mm 4 mps 749 mmHg 82%
    16:00 +14°C° 0.2 mm 4 mps 750 mmHg 82%
    17:00 +13°C° 0.2 mm 5 mps 750 mmHg 83%
    18:00 +13°C° 0.2 mm 5 mps 750 mmHg 83%
    19:00 +12°C° 0 mm 4 mps 751 mmHg 86%
    20:00 +11°C° 0 mm 3 mps 752 mmHg 88%
    21:00 +10°C° 0 mm 3 mps 752 mmHg 91%
    22:00 +9°C° 0 mm 3 mps 753 mmHg 92%
    23:00 +9°C° 0 mm 3 mps 753 mmHg 92%

    Tomorrow, 8 June, Monday

    Time Temperature Precipitation Wind Pressure Humidity
    00:00 +8°C° 0 mm 2 mps 753 mmHg 93%
    01:00 +7°C° 0 mm 3 mps 753 mmHg 94%
    02:00 +7°C° 0 mm 3 mps 754 mmHg 95%
    03:00 +5°C° 0 mm 3 mps 754 mmHg 96%
    04:00 +7°C° 0 mm 3 mps 754 mmHg 94%
    05:00 +6°C° 0 mm 4 mps 754 mmHg 91%
    06:00 +7°C° 0 mm 4 mps 755 mmHg 89%
    07:00 +8°C° 0 mm 4 mps 755 mmHg 82%
    08:00 +10°C° 0 mm 4 mps 755 mmHg 75%
    09:00 +12°C° 0 mm 4 mps 756 mmHg 68%
    10:00 +13°C° 0 mm 4 mps 756 mmHg 65%
    11:00 +13°C° 0 mm 4 mps 756 mmHg 62%
    12:00 +14°C° 0 mm 4 mps 756 mmHg 59%
    13:00 +14°C° 0 mm 4 mps 756 mmHg 61%
    14:00 +14°C° 0 mm 4 mps 756 mmHg 62%
    15:00 +14°C° 0 mm 4 mps 756 mmHg 63%
    16:00 +13°C° 0 mm 4 mps 756 mmHg 65%
    17:00 +13°C° 0 mm 4 mps 756 mmHg 67%
    18:00 +12°C° 0 mm 3 mps 756 mmHg 68%
    19:00 +11°C° 0 mm 3 mps 756 mmHg 74%
    20:00 +9°C° 0 mm 3 mps 756 mmHg 80%
    21:00 +8°C° 0 mm 2 mps 757 mmHg 86%
    22:00 +7°C° 0 mm 2 mps 757 mmHg 87%
    23:00 +6°C° 0 mm 2 mps 757 mmHg 88%

    Day after tomorrow, 9 June, Tuesday

    Time Temperature Precipitation Wind Pressure Humidity
    00:00 +6°C° 0 mm 2 mps 757 mmHg 89%
    01:00 +7°C° 0 mm 1 mps 757 mmHg 88%
    02:00 +6°C° 0 mm 1 mps 757 mmHg 87%
    03:00 +6°C° 0 mm 1 mps 757 mmHg 86%
    04:00 +7°C° 0 mm 1 mps 757 mmHg 82%
    05:00 +7°C° 0 mm 0 mps 757 mmHg 78%
    06:00 +8°C° 0 mm 0 mps 757 mmHg 75%
    07:00 +11°C° 0 mm 1 mps 757 mmHg 71%
    08:00 +12°C° 0 mm 1 mps 757 mmHg 67%
    09:00 +13°C° 0 mm 1 mps 757 mmHg 63%
    10:00 +14°C° 0 mm 1 mps 757 mmHg 63%
    11:00 +14°C° 0 mm 1 mps 757 mmHg 63%
    12:00 +15°C° 0 mm 1 mps 757 mmHg 63%
    13:00 +16°C° 0 mm 1 mps 756 mmHg 62%
    14:00 +16°C° 0 mm 1 mps 756 mmHg 61%
    15:00 +18°C° 0 mm 1 mps 756 mmHg 61%
    16:00 +16°C° 0.1 mm 1 mps 756 mmHg 66%
    17:00 +16°C° 0.1 mm 2 mps 756 mmHg 71%
    18:00 +16°C° 0.1 mm 2 mps 756 mmHg 76%
    19:00 +14°C° 0.1 mm 2 mps 756 mmHg 79%
    20:00 +13°C° 0.1 mm 2 mps 756 mmHg 83%
    21:00 +12°C° 0.1 mm 2 mps 756 mmHg 87%
    22:00 +12°C° 0 mm 2 mps 756 mmHg 88%
    23:00 +10°C° 0 mm 2 mps 755 mmHg 90%

    10 June, Wednesday

    Time Temperature Precipitation Wind Pressure Humidity
    00:00 +10°C° 0 mm 2 mps 755 mmHg 92%
    01:00 +10°C° 0 mm 2 mps 755 mmHg 92%
    02:00 +10°C° 0 mm 2 mps 755 mmHg 92%
    03:00 +10°C° 0 mm 3 mps 754 mmHg 93%
    04:00 +10°C° 0.2 mm 2 mps 754 mmHg 93%
    05:00 +10°C° 0.2 mm 2 mps 754 mmHg 94%
    06:00 +11°C° 0.2 mm 1 mps 754 mmHg 94%
    07:00 +12°C° 0.5 mm 1 mps 754 mmHg 92%
    08:00 +12°C° 0.5 mm 1 mps 754 mmHg 90%
    09:00 +13°C° 0.5 mm 1 mps 754 mmHg 88%
    10:00 +13°C° 0.7 mm 1 mps 754 mmHg 88%
    11:00 +13°C° 0.7 mm 1 mps 754 mmHg 87%
    12:00 +13°C° 0.7 mm 1 mps 753 mmHg 87%
    13:00 +14°C° 0.2 mm 2 mps 753 mmHg 84%
    14:00 +14°C° 0.2 mm 2 mps 753 mmHg 81%
    15:00 +15°C° 0.2 mm 2 mps 752 mmHg 78%
    16:00 +15°C° 0.3 mm 2 mps 752 mmHg 80%
    17:00 +14°C° 0.3 mm 2 mps 752 mmHg 81%
    18:00 +14°C° 0.3 mm 2 mps 751 mmHg 83%
    19:00 +13°C° 0.1 mm 2 mps 751 mmHg 85%
    20:00 +12°C° 0.1 mm 2 mps 751 mmHg 87%
    21:00 +10°C° 0.1 mm 2 mps 751 mmHg 89%
    22:00 +10°C° 0 mm 2 mps 751 mmHg 90%
    23:00 +9°C° 0 mm 3 mps 750 mmHg 91%

    11 June, Thursday

    Time Temperature Precipitation Wind Pressure Humidity
    00:00 +9°C° 0 mm 3 mps 750 mmHg 92%
    01:00 +9°C° 0.1 mm 3 mps 750 mmHg 93%
    02:00 +9°C° 0.1 mm 3 mps 750 mmHg 94%
    03:00 +9°C° 0.1 mm 3 mps 749 mmHg 95%
    04:00 +10°C° 0.1 mm 4 mps 749 mmHg 94%
    05:00 +10°C° 0.1 mm 4 mps 749 mmHg 93%
    06:00 +10°C° 0.1 mm 4 mps 749 mmHg 93%
    07:00 +11°C° 0.1 mm 4 mps 749 mmHg 91%
    08:00 +11°C° 0.1 mm 4 mps 749 mmHg 88%
    09:00 +12°C° 0.1 mm 4 mps 749 mmHg 86%
    10:00 +13°C° 0.2 mm 5 mps 749 mmHg 81%
    11:00 +15°C° 0.2 mm 5 mps 749 mmHg 76%
    12:00 +16°C° 0.2 mm 6 mps 749 mmHg 71%
    13:00 +16°C° 0.5 mm 7 mps 748 mmHg 75%
    14:00 +16°C° 0.5 mm 7 mps 748 mmHg 79%
    15:00 +15°C° 0.5 mm 8 mps 747 mmHg 83%
    16:00 +15°C° 0.4 mm 8 mps 747 mmHg 85%
    17:00 +14°C° 0.4 mm 7 mps 747 mmHg 88%
    18:00 +14°C° 0.4 mm 7 mps 747 mmHg 90%
    19:00 +12°C° 0.7 mm 7 mps 747 mmHg 92%
    20:00 +12°C° 0.7 mm 7 mps 747 mmHg 93%
    21:00 +11°C° 0.7 mm 7 mps 747 mmHg 95%
    22:00 +11°C° 0.1 mm 7 mps 746 mmHg 95%
    23:00 +11°C° 0.1 mm 7 mps 746 mmHg 95%

    12 June, Friday

    Time Temperature Precipitation Wind Pressure Humidity
    00:00 +11°C° 0.1 mm 6 mps 745 mmHg 95%
    01:00 +11°C° 0 mm 7 mps 745 mmHg 95%
    02:00 +11°C° 0 mm 7 mps 744 mmHg 95%
    03:00 +11°C° 0 mm 7 mps 744 mmHg 95%
    04:00 +12°C° 0.1 mm 7 mps 744 mmHg 95%
    05:00 +13°C° 0.1 mm 6 mps 744 mmHg 95%
    06:00 +13°C° 0.1 mm 6 mps 744 mmHg 95%
    07:00 +13°C° 0.4 mm 6 mps 744 mmHg 94%
    08:00 +13°C° 0.4 mm 6 mps 744 mmHg 94%
    09:00 +14°C° 0.4 mm 5 mps 744 mmHg 93%
    10:00 +13°C° 1.6 mm 5 mps 744 mmHg 94%
    11:00 +12°C° 1.6 mm 4 mps 744 mmHg 95%
    12:00 +11°C° 1.6 mm 4 mps 745 mmHg 95%
    13:00 +12°C° 0.3 mm 3 mps 745 mmHg 87%
    14:00 +14°C° 0.3 mm 3 mps 745 mmHg 79%
    15:00 +17°C° 0.3 mm 3 mps 745 mmHg 72%
    16:00 +17°C° 0 mm 3 mps 745 mmHg 71%
    17:00 +17°C° 0 mm 3 mps 745 mmHg 71%
    18:00 +17°C° 0 mm 3 mps 746 mmHg 71%
    19:00 +14°C° 0 mm 3 mps 746 mmHg 77%
    20:00 +13°C° 0 mm 3 mps 746 mmHg 83%
    21:00 +11°C° 0 mm 3 mps 746 mmHg 89%
    22:00 +10°C° 0 mm 3 mps 747 mmHg 89%
    23:00 +10°C° 0 mm 3 mps 747 mmHg 90%
    Show more